Raton, NM

10:05 PM MDT on March 29, 2017 (GMT -0600)
Raton Municipal-Crews

Weather History for KRTN - January, 2012

Change the Weather History Date:

Thursday, January 12, 2012

  Actual Average (KTAD) Record (KTAD)
Temperature  
Mean Temperature 24 °F -  
Max Temperature 44 °F 47 °F 67 °F (1953)
Min Temperature 5 °F 16 °F -32 °F (1963)
Degree Days  
Heating Degree Days 40    
Moisture  
Dew Point 3 °F    
Average Humidity 50    
Maximum Humidity 80    
Minimum Humidity 14    
Precipitation  
Precipitation 0.01 in - - ()
Sea Level Pressure  
Sea Level Pressure 30.19 in    
Wind  
Wind Speed 6 mph (NNW)    
Max Wind Speed 13 mph    
Max Gust Speed -    
Visibility 10 miles    
Events      
Averages and records for this station are not official NWS values.
T = Trace of Precipitation, MM = Missing Value Source: NWS Daily Summary

Daily Weather History Graph

Daily Weather History Graph

Search for Another Location

Airport or City:

Trip Planner

Search our weather history database for the weather conditions in past years. The results will help you decide how hot, cold, wet, or windy it might be!

Date:

Astronomy

Jan. 12, 2012 Rise Set
Actual Time 7:10 AM MST 5:02 PM MST
Civil Twilight 6:42 AM MST 5:30 PM MST
Nautical Twilight 6:10 AM MST 6:02 PM MST
Astronomical Twilight 5:38 AM MST 6:33 PM MST
Moon 9:02 PM MST (1/12) 9:02 AM MST (1/12)
Length of Visible Light 10h 48m
Length of Day
9h 51m
Waning Gibbous, 86% of the Moon is Illuminated
Jan 12
Waning Gibbous
Jan 16
Last Quarter
Jan 23
New
Jan 30
First Quarter
Feb 7
Full

Hourly Weather History & Observations

Time (MST) Temp. Windchill Dew Point Humidity Pressure Visibility Wind Dir Wind Speed Gust Speed Precip Events Conditions
12:53 AM 12.9 °F 3.8 °F 7.0 °F 77% 30.17 in 10.0 mi WSW 5.8 mph - N/A   Clear
1:53 AM 10.0 °F -0.9 °F 5.0 °F 80% 30.20 in 10.0 mi West 6.9 mph - N/A   Clear
2:53 AM 8.1 °F - 3.0 °F 80% 30.24 in 10.0 mi Calm Calm - N/A   Clear
3:53 AM 9.0 °F -5.1 °F 3.0 °F 77% 30.24 in 10.0 mi NNE 10.4 mph - N/A   Clear
4:53 AM 8.1 °F -3.2 °F 1.9 °F 76% 30.26 in 10.0 mi NE 6.9 mph - N/A   Clear
5:53 AM 5.0 °F - -0.9 °F 76% 30.30 in 10.0 mi Calm Calm - 0.01 in   Clear
6:53 AM 6.1 °F -4.3 °F -0.0 °F 76% 30.30 in 10.0 mi NE 5.8 mph - N/A   Clear
7:53 AM 10.0 °F 1.8 °F 1.9 °F 70% 30.29 in 10.0 mi ENE 4.6 mph - N/A   Clear
8:53 AM 14.0 °F 6.5 °F 5.0 °F 67% 30.30 in 10.0 mi NE 4.6 mph - N/A   Clear
9:53 AM 21.0 °F 13.4 °F 9.0 °F 60% 30.27 in 10.0 mi ENE 5.8 mph - N/A   Clear
10:53 AM 30.9 °F - 10.0 °F 42% 30.22 in 10.0 mi Calm Calm - N/A   Clear
11:53 AM 37.0 °F 32.4 °F 5.0 °F 26% 30.16 in 10.0 mi South 5.8 mph - N/A   Clear
12:53 PM 43.0 °F 39.5 °F -2.9 °F 15% 30.09 in 10.0 mi ESE 5.8 mph - N/A   Clear
1:53 PM 44.1 °F - -2.9 °F 14% 30.07 in 10.0 mi Calm Calm - N/A   Clear
2:53 PM 39.9 °F 32.9 °F 1.9 °F 20% 30.11 in 10.0 mi SSW 11.5 mph - N/A   Clear
3:53 PM 39.0 °F 31.8 °F -0.9 °F 19% 30.11 in 10.0 mi SSW 11.5 mph - N/A   Clear
4:53 PM 33.1 °F 27.7 °F -0.0 °F 24% 30.15 in 10.0 mi SW 5.8 mph - N/A   Clear
5:53 PM 28.0 °F 19.3 °F -0.0 °F 30% 30.19 in 10.0 mi WSW 9.2 mph - N/A   Clear
6:53 PM 28.0 °F - 3.9 °F 36% 30.18 in 10.0 mi Calm Calm - N/A   Clear
7:53 PM 26.1 °F 21.9 °F 6.1 °F 43% 30.17 in 10.0 mi WNW 3.5 mph - N/A   Clear
8:53 PM 19.0 °F 12.3 °F 5.0 °F 54% 30.19 in 10.0 mi NNW 4.6 mph - N/A   Clear
9:53 PM 23.0 °F 12.4 °F 7.0 °F 50% 30.16 in 10.0 mi NNW 10.4 mph - N/A   Clear
10:53 PM 23.0 °F 12.4 °F 6.1 °F 48% 30.12 in 10.0 mi North 10.4 mph - N/A   Clear
11:53 PM 25.0 °F 13.6 °F 3.9 °F 41% 30.10 in 10.0 mi North 12.7 mph - N/A   Clear